FW6831 Weather Reports


Display with metric or nautical units.
time (UTC)temp
F
wind
direction
speed
MPH
gust
MPH
rain 1hr
in
rain 24hr
in
rain mn
in
humidity
%
barometer
mb
20260508012544 66 222 0.0 7.0 0.00 0.00 0.00 36 1020.0
20260508012044 65 304 1.0 7.0 0.00 0.00 0.00 38 1020.2
20260508011600 66 323 1.0 5.0 0.00 0.00 0.00 37 1020.2
20260508011045 66 305 1.0 5.0 0.00 0.00 0.00 39 1020.4
20260508010544 66 332 1.0 5.0 0.00 0.00 0.00 36 1020.4
20260508010059 66 245 1.0 3.0 0.00 0.00 0.00 36 1020.4
20260508005544 66 306 0.0 4.0 0.00 0.00 0.00 38 1020.5
20260508005044 65 296 1.0 4.0 0.00 0.00 0.00 39 1020.7
20260508004559 64 224 1.0 5.0 0.00 0.00 0.00 37 1020.6
20260508004044 65 274 0.0 5.0 0.00 0.00 0.00 41 1020.9
20260508003543 64 242 0.0 5.0 0.00 0.00 0.00 39 1020.9
20260508003108 64 174 2.0 5.0 0.00 0.00 0.00 36 1020.9
20260508002544 64 0 1.0 5.0 0.00 0.00 0.00 39 1020.9
20260508002044 63 312 2.0 6.0 0.00 0.00 0.00 38 1021.0
20260508001552 63 360 1.0 6.0 0.00 0.00 0.00 37 1021.1
20260508001044 62 268 1.0 6.0 0.00 0.00 0.00 37 1021.1
20260508000548 62 263 2.0 5.0 0.00 0.00 0.00 37 1021.1
20260508000050 62 188 2.0 5.0 0.00 0.00 0.00 38 1021.3
20260507235544 62 185 2.0 6.0 0.00 0.00 0.00 36 1021.3
20260507235044 62 207 1.0 6.0 0.00 0.00 0.00 38 1021.3
20260507234548 62 201 2.0 5.0 0.00 0.00 0.00 37 1021.4
20260507234043 62 261 2.0 6.0 0.00 0.00 0.00 38 1021.4
20260507233544 61 266 1.0 6.0 0.00 0.00 0.00 40 1021.4
20260507233052 61 158 3.0 7.0 0.00 0.00 0.00 38 1021.5
20260507232544 61 254 1.0 10.0 0.00 0.00 0.00 41 1021.6
20260507232044 61 215 4.0 10.0 0.00 0.00 0.00 39 1021.4
20260507231605 62 0 0.0 2.0 0.00 0.00 0.00 42 1021.3
20260507231044 61 262 0.0 5.0 0.00 0.00 0.00 47 1021.3
20260507230544 61 0 1.0 5.0 0.00 0.00 0.00 48 1021.4
20260507230056 61 0 0.0 0.0 0.00 0.00 0.00 49 1021.3
20260507225544 61 0 0.0 0.0 0.00 0.00 0.00 52 1021.1
20260507225044 60 0 0.0 0.0 0.00 0.00 0.00 51 1021.3
20260507224557 59 0 0.0 0.0 0.00 0.00 0.00 53 1021.4
20260507224044 59 0 0.0 0.0 0.00 0.00 0.00 55 1021.4
20260507223544 59 0 0.0 0.0 0.00 0.00 0.00 54 1021.4
20260507223049 58 0 0.0 0.0 0.00 0.00 0.00 63 1021.5
20260507222546 58 0 0.0 0.0 0.00 0.00 0.00 62 1021.5
20260507222043 57 0 0.0 0.0 0.00 0.00 0.00 64 1021.4
20260507221550 57 0 0.0 0.0 0.00 0.00 0.00 66 1021.1
20260507221044 56 0 0.0 0.0 0.00 0.00 0.00 66 1021.0
20260507220545 54 0 0.0 0.0 0.00 0.00 0.00 68 1020.9
20260507220048 54 0 0.0 0.0 0.00 0.00 0.00 66 1020.9
20260507215547 54 0 0.0 0.0 0.00 0.00 0.00 66 1021.0
20260507215045 53 0 0.0 0.0 0.00 0.00 0.00 69 1020.9
20260507214553 53 0 0.0 0.0 0.00 0.00 0.00 68 1020.9
20260507214044 52 0 0.0 0.0 0.00 0.00 0.00 69 1020.9
20260507213544 52 0 0.0 0.0 0.00 0.00 0.00 71 1020.9
20260507213104 51 0 0.0 0.0 0.00 0.00 0.00 71 1020.9
20260507212546 50 0 0.0 0.0 0.00 0.00 0.00 75 1020.9
20260507212044 50 0 0.0 0.0 0.00 0.00 0.00 75 1020.8
20260507211549 49 0 0.0 0.0 0.00 0.00 0.00 76 1020.9
20260507211043 49 0 0.0 0.0 0.00 0.00 0.00 76 1020.8
20260507210544 48 0 0.0 0.0 0.00 0.00 0.00 79 1020.7
20260507210054 48 0 0.0 0.0 0.00 0.00 0.00 76 1020.6
20260507205546 48 0 0.0 0.0 0.00 0.00 0.00 74 1020.6
20260507205043 48 0 0.0 0.0 0.00 0.00 0.00 76 1020.5
20260507204601 47 0 0.0 0.0 0.00 0.00 0.00 73 1020.5
20260507204043 47 0 0.0 0.0 0.00 0.00 0.00 76 1020.3
20260507203547 47 0 0.0 0.0 0.00 0.00 0.00 78 1020.4
20260507203050 47 0 0.0 0.0 0.00 0.00 0.00 77 1020.3
20260507202544 47 0 0.0 0.0 0.00 0.00 0.00 79 1020.4
20260507202044 47 0 0.0 0.0 0.00 0.00 0.00 78 1020.4
20260507201553 47 0 0.0 0.0 0.00 0.00 0.00 78 1020.3
20260507201047 47 0 0.0 0.0 0.00 0.00 0.00 79 1020.1
20260507200546 47 0 0.0 0.0 0.00 0.00 0.00 78 1020.1
20260507200049 47 0 0.0 0.0 0.00 0.00 0.00 77 1020.1
20260507195545 48 0 0.0 0.0 0.00 0.00 0.00 78 1020.0
20260507195047 48 0 0.0 0.0 0.00 0.00 0.00 78 1019.9
20260507194552 48 0 0.0 0.0 0.00 0.00 0.00 78 1019.8
20260507194043 48 0 0.0 0.0 0.00 0.00 0.00 77 1019.8
20260507193543 48 0 0.0 0.0 0.00 0.00 0.00 76 1019.7
20260507193108 49 0 0.0 0.0 0.00 0.00 0.00 76 1019.8
20260507192543 49 0 0.0 0.0 0.00 0.00 0.00 74 1019.6
20260507192044 49 0 0.0 0.0 0.00 0.00 0.00 75 1019.7
20260507191554 49 0 0.0 0.0 0.00 0.00 0.00 76 1019.6
20260507191043 49 0 0.0 0.0 0.00 0.00 0.00 76 1019.6
20260507190543 50 0 0.0 0.0 0.00 0.00 0.00 75 1019.4
20260507185544 50 0 0.0 0.0 0.00 0.00 0.00 73 1019.3
20260507185044 50 0 0.0 0.0 0.00 0.00 0.00 72 1019.2
20260507184553 50 0 0.0 0.0 0.00 0.00 0.00 71 1019.1
20260507184044 51 0 0.0 0.0 0.00 0.00 0.00 71 1019.1
20260507183543 50 0 0.0 0.0 0.00 0.00 0.00 70 1018.9
20260507183100 50 0 0.0 0.0 0.00 0.00 0.00 72 1018.9
20260507182546 50 0 0.0 0.0 0.00 0.00 0.00 72 1018.9
20260507182044 50 0 0.0 0.0 0.00 0.00 0.00 72 1019.0
20260507181550 50 0 0.0 0.0 0.00 0.00 0.00 74 1019.0
20260507181044 51 0 0.0 0.0 0.00 0.00 0.00 75 1018.8
20260507180544 51 0 0.0 0.0 0.00 0.00 0.00 73 1019.1
20260507180052 51 0 0.0 0.0 0.00 0.00 0.00 74 1018.9
20260507175543 51 0 0.0 0.0 0.00 0.00 0.00 73 1019.0
20260507175044 52 0 0.0 0.0 0.00 0.00 0.00 72 1018.8
20260507174552 52 0 0.0 0.0 0.00 0.00 0.00 71 1018.8
20260507174046 52 0 0.0 0.0 0.00 0.00 0.00 71 1018.8
20260507173544 52 0 0.0 0.0 0.00 0.00 0.00 72 1018.7
20260507173054 52 0 0.0 0.0 0.00 0.00 0.00 70 1018.6
20260507172548 53 0 0.0 0.0 0.00 0.00 0.00 71 1018.6
20260507172045 53 0 0.0 0.0 0.00 0.00 0.00 70 1018.5
20260507171556 53 0 0.0 0.0 0.00 0.00 0.00 70 1018.5
20260507171044 53 0 0.0 0.0 0.00 0.00 0.00 71 1018.3
20260507170544 53 0 0.0 0.0 0.00 0.00 0.00 70 1018.4
20260507170051 53 0 0.0 0.0 0.00 0.00 0.00 72 1018.3
20260507165548 54 0 0.0 1.0 0.00 0.00 0.00 73 1018.2
20260507165045 54 0 0.0 1.0 0.00 0.00 0.00 71 1018.3
20260507164556 54 0 0.0 1.0 0.00 0.00 0.00 72 1018.3
20260507164044 54 0 0.0 1.0 0.00 0.00 0.00 71 1018.5
20260507163547 54 0 0.0 2.0 0.00 0.00 0.00 68 1018.4
20260507163053 55 0 0.0 4.0 0.00 0.00 0.00 68 1018.5
20260507162541 55 0 0.0 4.0 0.00 0.00 0.00 68 1018.4
20260507162049 55 358 0.0 4.0 0.00 0.00 0.00 68 1018.3
20260507161549 56 64 0.0 2.0 0.00 0.00 0.00 69 1018.4
20260507161044 56 63 0.0 2.0 0.00 0.00 0.00 67 1018.3
20260507160547 56 0 0.0 6.0 0.00 0.00 0.00 68 1018.2
20260507160059 56 324 0.0 6.0 0.00 0.00 0.00 67 1018.3
20260507155543 56 267 0.0 6.0 0.00 0.00 0.00 68 1018.3
20260507155047 57 0 1.0 6.0 0.00 0.00 0.00 68 1018.2
20260507154549 56 310 1.0 5.0 0.00 0.00 0.00 67 1018.2
20260507154044 56 219 0.0 6.0 0.00 0.00 0.00 68 1018.1
20260507153547 57 0 0.0 6.0 0.00 0.00 0.00 68 1018.1
20260507153054 57 221 1.0 6.0 0.00 0.00 0.00 67 1018.1
20260507152543 57 234 0.0 7.0 0.00 0.00 0.00 67 1018.1
20260507152042 58 311 0.0 7.0 0.00 0.00 0.00 66 1018.1
20260507151554 58 316 1.0 6.0 0.00 0.00 0.00 66 1017.9
20260507151048 58 0 2.0 6.0 0.00 0.00 0.00 66 1017.9
20260507150543 58 356 0.0 5.0 0.00 0.00 0.00 66 1018.2
20260507150052 58 0 1.0 6.0 0.00 0.00 0.00 66 1018.0
20260507145546 58 323 1.0 6.0 0.00 0.00 0.00 65 1018.0
20260507145043 58 0 0.0 5.0 0.00 0.00 0.00 66 1018.2
20260507144558 58 249 2.0 5.0 0.00 0.00 0.00 66 1018.1
20260507144044 58 167 1.0 7.0 0.00 0.00 0.00 67 1018.4
20260507143543 57 0 1.0 7.0 0.00 0.00 0.00 68 1018.4
20260507143052 57 0 0.0 2.0 0.00 0.00 0.00 70 1018.2
20260507142543 58 302 1.0 3.0 0.00 0.00 0.00 68 1018.2
20260507142043 58 0 1.0 3.0 0.00 0.00 0.00 68 1018.6
20260507141553 58 0 0.0 4.0 0.00 0.00 0.00 69 1018.2
20260507141043 59 300 1.0 4.0 0.00 0.00 0.00 67 1018.2
20260507140543 58 0 0.0 0.0 0.00 0.00 0.00 66 1018.5
20260507140111 59 0 0.0 0.0 0.00 0.00 0.00 66 1018.2
20260507135543 59 0 0.0 0.0 0.00 0.00 0.00 65 1018.5
20260507135043 59 0 0.0 0.0 0.00 0.00 0.00 64 1018.6
20260507134552 60 0 0.0 0.0 0.00 0.00 0.00 63 1018.3
20260507134043 60 0 0.0 2.0 0.00 0.00 0.00 62 1018.5
20260507133544 60 0 0.0 2.0 0.00 0.00 0.00 62 1018.2
20260507133052 61 302 1.0 3.0 0.00 0.00 0.00 62 1018.4
20260507132543 61 260 0.0 3.0 0.00 0.00 0.00 60 1018.7
20260507132043 61 0 0.0 7.0 0.00 0.00 0.00 60 1018.6
20260507131604 62 162 0.0 8.0 0.00 0.00 0.00 59 1018.7
20260507131047 62 271 1.0 8.0 0.00 0.00 0.00 59 1018.4
20260507130543 62 271 1.0 3.0 0.00 0.00 0.00 60 1018.5
20260507130112 62 274 1.0 4.0 0.00 0.00 0.00 59 1018.6
20260507125543 62 275 1.0 6.0 0.00 0.00 0.00 60 1018.7
20260507125043 62 11 2.0 6.0 0.00 0.00 0.00 61 1018.5
20260507124605 62 236 1.0 4.0 0.00 0.00 0.00 59 1018.4
20260507124045 62 323 1.0 4.0 0.00 0.00 0.00 58 1018.4
20260507123545 62 110 1.0 3.0 0.00 0.00 0.00 58 1018.4
20260507123059 62 103 1.0 3.0 0.00 0.00 0.00 60 1018.2
20260507122542 63 312 0.0 5.0 0.00 0.00 0.00 58 1018.2
20260507122045 63 181 1.0 5.0 0.00 0.00 0.00 56 1018.2
20260507121554 63 323 1.0 9.0 0.00 0.00 0.00 56 1018.1
20260507121044 64 326 1.0 9.0 0.00 0.00 0.00 56 1018.2
20260507120545 64 328 1.0 8.0 0.00 0.00 0.00 55 1018.2
20260507120056 64 143 1.0 8.0 0.00 0.00 0.00 55 1018.0
20260507115543 64 167 1.0 8.0 0.00 0.00 0.00 54 1017.7
20260507115043 64 251 2.0 9.0 0.00 0.00 0.00 55 1017.4
20260507114552 64 290 2.0 9.0 0.00 0.00 0.00 54 1017.2
20260507114046 65 318 2.0 9.0 0.00 0.00 0.00 53 1017.2
20260507113543 65 307 1.0 12.0 0.00 0.00 0.00 53 1017.5
20260507113051 65 256 2.0 12.0 0.00 0.00 0.00 52 1017.7
20260507112545 65 358 2.0 7.0 0.00 0.00 0.00 52 1017.6
20260507112043 65 242 0.0 7.0 0.00 0.00 0.00 52 1017.5
20260507111552 65 326 2.0 6.0 0.00 0.00 0.00 51 1017.5
20260507111042 65 355 2.0 5.0 0.00 0.00 0.00 52 1017.6
20260507110544 65 0 2.0 6.0 0.00 0.00 0.00 52 1017.5
20260507110052 66 264 1.0 6.0 0.00 0.00 0.00 51 1017.5
20260507105543 66 37 1.0 8.0 0.00 0.00 0.00 51 1017.4
20260507105044 66 236 1.0 8.0 0.00 0.00 0.00 50 1017.3
20260507104554 66 280 2.0 8.0 0.00 0.00 0.00 51 1017.4
20260507104042 66 252 2.0 8.0 0.00 0.00 0.00 52 1017.3
20260507103544 66 0 1.0 8.0 0.00 0.00 0.00 51 1017.2
20260507103053 66 293 2.0 10.0 0.00 0.00 0.00 52 1016.9
20260507102543 66 9 2.0 10.0 0.00 0.00 0.00 53 1017.0
20260507102044 66 40 3.0 10.0 0.00 0.00 0.00 52 1016.9
20260507101552 67 326 1.0 7.0 0.00 0.00 0.00 52 1016.8
20260507101045 67 271 1.0 7.0 0.00 0.00 0.00 51 1016.8
20260507100543 67 67 2.0 7.0 0.00 0.00 0.00 50 1016.9
20260507100057 67 291 2.0 7.0 0.00 0.00 0.00 50 1017.1
20260507095543 67 248 2.0 7.0 0.00 0.00 0.00 52 1017.1
20260507095042 67 319 1.0 5.0 0.00 0.00 0.00 50 1017.0
20260507094554 67 270 1.0 5.0 0.00 0.00 0.00 51 1016.8
20260507094042 67 244 0.0 8.0 0.00 0.00 0.00 52 1016.7
20260507093542 67 309 2.0 8.0 0.00 0.00 0.00 51 1016.6
20260507093052 68 319 1.0 10.0 0.00 0.00 0.00 51 1016.7
20260507092544 68 311 2.0 10.0 0.00 0.00 0.00 49 1016.9
20260507092046 68 275 2.0 7.0 0.00 0.00 0.00 49 1016.9
20260507091554 68 310 3.0 7.0 0.00 0.00 0.00 50 1016.8
20260507091047 68 0 0.0 7.0 0.00 0.00 0.00 51 1016.6
20260507090543 68 309 1.0 7.0 0.00 0.00 0.00 52 1016.5
20260507090056 68 281 1.0 5.0 0.00 0.00 0.00 51 1016.3
20260507085543 68 0 0.0 5.0 0.00 0.00 0.00 50 1016.3
20260507085043 69 326 1.0 4.0 0.00 0.00 0.00 50 1016.2
20260507084555 69 284 1.0 4.0 0.00 0.00 0.00 51 1016.2
20260507084042 69 329 0.0 9.0 0.00 0.00 0.00 50 1016.1
20260507083544 69 359 1.0 9.0 0.00 0.00 0.00 50 1016.0
20260507083056 69 248 2.0 7.0 0.00 0.00 0.00 48 1015.8
20260507082544 70 317 2.0 7.0 0.00 0.00 0.00 49 1015.8
20260507082046 70 283 2.0 7.0 0.00 0.00 0.00 48 1015.9
20260507081552 70 284 2.0 7.0 0.00 0.00 0.00 47 1015.9
20260507081044 70 278 2.0 7.0 0.00 0.00 0.00 48 1015.8
20260507080544 70 306 2.0 6.0 0.00 0.00 0.00 47 1015.7
20260507080121 71 0 0.0 6.0 0.00 0.00 0.00 46 1015.8
20260507075546 71 168 3.0 9.0 0.00 0.00 0.00 46 1015.8
20260507075043 71 221 2.0 9.0 0.00 0.00 0.00 47 1015.6
20260507074557 71 0 2.0 10.0 0.00 0.00 0.00 47 1015.4
20260507074042 71 319 2.0 10.0 0.00 0.00 0.00 47 1015.4
20260507073543 71 335 2.0 10.0 0.00 0.00 0.00 46 1015.4
20260507073059 71 323 2.0 10.0 0.00 0.00 0.00 49 1015.4
20260507072543 72 304 2.0 10.0 0.00 0.00 0.00 49 1015.3
20260507072046 72 290 3.0 10.0 0.00 0.00 0.00 47 1015.1
20260507071601 72 341 1.0 10.0 0.00 0.00 0.00 47 1015.1
20260507071043 72 32 1.0 9.0 0.00 0.00 0.00 49 1015.2
20260507070545 72 314 0.0 9.0 0.00 0.00 0.00 51 1015.1
20260507070051 71 293 1.0 4.0 0.00 0.00 0.00 53 1015.0
20260507065543 72 350 1.0 2.0 0.00 0.00 0.00 55 1014.9
20260507065044 72 340 0.0 2.0 0.00 0.00 0.00 53 1014.8
20260507064557 72 320 0.0 5.0 0.00 0.00 0.00 54 1014.7
20260507064044 73 293 0.0 5.0 0.00 0.00 0.00 52 1014.6
20260507063544 73 290 1.0 4.0 0.00 0.00 0.00 48 1014.5
20260507063051 73 294 1.0 7.0 0.00 0.00 0.00 50 1014.5
20260507062543 73 343 1.0 7.0 0.00 0.00 0.00 49 1014.4
20260507062043 73 246 2.0 7.0 0.00 0.00 0.00 47 1014.5
20260507061554 73 321 2.0 5.0 0.00 0.00 0.00 49 1014.4
20260507061042 74 319 2.0 5.0 0.00 0.00 0.00 48 1014.3
20260507060543 74 184 1.0 7.0 0.00 0.00 0.00 48 1014.4
20260507060053 74 226 1.0 10.0 0.00 0.00 0.00 48 1014.4
20260507055543 74 305 2.0 10.0 0.00 0.00 0.00 47 1014.4
20260507055045 74 320 1.0 7.0 0.00 0.00 0.00 47 1014.3
20260507054555 74 8 2.0 7.0 0.00 0.00 0.00 48 1014.3
20260507054043 74 318 1.0 7.0 0.00 0.00 0.00 48 1014.3
20260507053543 74 242 1.0 4.0 0.00 0.00 0.00 50 1014.3
20260507053055 74 326 0.0 7.0 0.00 0.00 0.00 51 1014.1
20260507052545 74 315 1.0 7.0 0.00 0.00 0.00 51 1014.1
20260507052043 75 261 1.0 7.0 0.00 0.00 0.00 49 1014.1
20260507051549 75 283 0.0 6.0 0.00 0.00 0.00 55 1014.2
20260507051044 75 239 1.0 6.0 0.00 0.00 0.00 55 1014.3
20260507050545 75 262 2.0 6.0 0.00 0.00 0.00 53 1014.2
20260507050053 75 256 0.0 6.0 0.00 0.00 0.00 56 1014.2
20260507045544 75 30 1.0 9.0 0.00 0.00 0.00 56 1014.3
20260507045043 75 308 1.0 10.0 0.00 0.00 0.00 53 1014.3
20260507044549 75 292 1.0 10.0 0.00 0.00 0.00 57 1014.4
20260507044047 76 297 1.0 5.0 0.00 0.00 0.00 56 1014.3
20260507043545 76 278 1.0 5.0 0.00 0.00 0.00 59 1014.6
20260507043049 76 319 0.0 4.0 0.00 0.00 0.00 60 1014.6
20260507042544 76 0 1.0 4.0 0.00 0.00 0.00 58 1014.6
20260507042044 76 323 1.0 4.0 0.00 0.00 0.00 59 1014.7
20260507041551 76 316 1.0 2.0 0.00 0.00 0.00 57 1014.6
20260507041044 76 326 1.0 5.0 0.00 0.00 0.00 59 1014.6
20260507040545 76 312 2.0 5.0 0.00 0.00 0.00 58 1014.7
20260507040059 76 274 1.0 5.0 0.00 0.00 0.00 57 1014.6
20260507035544 76 218 2.0 5.0 0.00 0.00 0.00 59 1014.7
20260507035043 76 312 1.0 4.0 0.00 0.00 0.00 58 1014.6
20260507034556 76 0 2.0 6.0 0.00 0.00 0.00 59 1014.6
20260507034044 77 254 2.0 7.0 0.00 0.00 0.00 58 1014.7
20260507033545 76 327 1.0 7.0 0.00 0.00 0.00 61 1014.7
20260507033051 76 240 1.0 6.0 0.00 0.00 0.00 60 1014.7
20260507032545 76 310 1.0 10.0 0.00 0.00 0.00 61 1014.7
20260507032044 76 254 0.0 10.0 0.00 0.00 0.00 60 1014.7
20260507031548 76 0 2.0 10.0 0.00 0.00 0.00 61 1014.9
20260507031044 76 229 0.0 6.0 0.00 0.00 0.00 62 1014.8
20260507030545 75 285 2.0 6.0 0.00 0.00 0.00 62 1014.9
20260507030054 76 279 1.0 7.0 0.00 0.00 0.00 63 1015.0
20260507025544 76 305 1.0 7.0 0.00 0.00 0.00 62 1015.0
20260507025044 76 238 2.0 7.0 0.00 0.00 0.00 63 1015.0
20260507024545 76 300 1.0 6.0 0.00 0.00 0.00 63 1014.9
20260507024043 76 278 1.0 5.0 0.00 0.00 0.00 63 1014.9
20260507023547 76 330 2.0 4.0 0.00 0.00 0.00 64 1014.9
20260507023052 77 262 1.0 5.0 0.00 0.00 0.00 63 1015.0
20260507022544 77 231 1.0 5.0 0.00 0.00 0.00 63 1015.1
20260507022045 78 271 0.0 4.0 0.00 0.00 0.00 64 1015.3
20260507021549 78 302 1.0 4.0 0.00 0.00 0.00 65 1015.4
20260507021044 78 281 2.0 4.0 0.00 0.00 0.00 63 1015.5
20260507020545 78 243 2.0 11.0 0.00 0.00 0.00 64 1015.6
20260507015544 78 240 2.0 5.0 0.00 0.00 0.00 65 1015.9
20260507015044 77 274 2.0 5.0 0.00 0.00 0.00 67 1015.9
20260507014606 77 307 2.0 5.0 0.00 0.00 0.00 69 1015.9
20260507014042 77 283 1.0 4.0 0.00 0.00 0.00 71 1015.9
20260507013545 77 295 1.0 7.0 0.00 0.00 0.00 71 1015.9
20260507013050 76 153 1.0 7.0 0.00 0.00 0.00 72 1016.0